Location: Mount Kobau Star Party
(49.1167°N, 119.7333°W)
Time: 11:23:48
(UTC-07:00)

Envisat - Pass Details

Date: 23 April 2026
Orbit: 761 x 762 km, 98.4° (Epoch: 17 May)

Event Time Altitude Azimuth Distance (km) Brightness Sun altitude
Rises 04:13:07 0° 11° (N) 3,233 7.1 -14.7°
Reaches altitude 10° 04:15:27 10° 7° (N) 2,303 6.2 -14.4°
Maximum altitude 04:20:25 57° 290° (WNW) 893 3.2 -13.8°
Enters shadow 04:24:01 18° 217° (SW) 1,783 4.3 -13.3°
